Private Wetterstation Wechselburg
Wetterdaten: Montag, 13.02.2023
Datum Zeit Temp. +2m Bodentemp. Temp.+5cm Temp. Wind Windchill X Diff Temp. Feuchte +2m Feuchte +5cm Luftdruck Regen Wind Richtung Richtung Sonnenschein Taupunkt Windchill Windben
13.02.2023 00:00 3,6 C 5,6 C 13,7 C 5,5 C 5,5 C 1,9 C 89 % 99 % 1038,5 hPa 0,0 l/m 0,0 km/h (0 Bft) SO 135 0 min 2,0 C 5,5 C 0,0 km/h (0 Bft)
13.02.2023 00:05 3,6 C 5,6 C 13,7 C 5,5 C 5,5 C 1,9 C 89 % 99 % 1037,7 hPa 0,0 l/m 0,0 km/h (0 Bft) SO 135 0 min 2,0 C 5,5 C 0,0 km/h (0 Bft)
13.02.2023 00:10 3,6 C 5,6 C 13,7 C 5,5 C 5,5 C 1,9 C 89 % 99 % 1037,7 hPa 0,0 l/m 0,0 km/h (0 Bft) SO 135 0 min 2,0 C 5,5 C 0,0 km/h (0 Bft)
13.02.2023 00:15 3,6 C 5,6 C 13,7 C 5,5 C 5,5 C 1,9 C 89 % 99 % 1037,7 hPa 0,0 l/m 0,0 km/h (0 Bft) SO 135 0 min 2,0 C 5,5 C 0,0 km/h (0 Bft)
13.02.2023 00:20 3,6 C 5,6 C 13,7 C 5,4 C 5,4 C 1,8 C 89 % 99 % 1037,7 hPa 0,0 l/m 0,0 km/h (0 Bft) SO 135 0 min 2,0 C 5,4 C 0,0 km/h (0 Bft)
13.02.2023 00:25 3,6 C 5,6 C 12,3 C 5,4 C 5,4 C 1,8 C 89 % 99 % 1037,9 hPa 0,0 l/m 0,0 km/h (0 Bft) SO 135 0 min 2,0 C 5,4 C 0,0 km/h (0 Bft)
13.02.2023 00:30 3,6 C 5,6 C 12,3 C 5,4 C 5,4 C 1,8 C 89 % 99 % 1037,9 hPa 0,0 l/m 0,0 km/h (0 Bft) SO 135 0 min 2,0 C 5,4 C 0,0 km/h (0 Bft)
13.02.2023 00:35 3,5 C 5,6 C 12,7 C 5,4 C 5,4 C 1,9 C 89 % 99 % 1037,9 hPa 0,0 l/m 0,0 km/h (0 Bft) SO 135 0 min 1,9 C 5,4 C 0,0 km/h (0 Bft)
13.02.2023 00:40 3,6 C 5,6 C 12,7 C 5,4 C 5,4 C 1,8 C 89 % 99 % 1037,9 hPa 0,0 l/m 0,0 km/h (0 Bft) SO 135 0 min 2,0 C 5,4 C 0,0 km/h (0 Bft)
13.02.2023 00:45 3,6 C 5,6 C 12,7 C 5,4 C 5,4 C 1,8 C 89 % 99 % 1037,9 hPa 0,0 l/m 0,0 km/h (0 Bft) SO 135 0 min 2,0 C 5,4 C 0,0 km/h (0 Bft)
13.02.2023 00:50 3,6 C 5,6 C 13,2 C 5,4 C 5,4 C 1,8 C 89 % 99 % 1037,9 hPa 0,0 l/m 0,0 km/h (0 Bft) SO 135 0 min 2,0 C 5,4 C 0,0 km/h (0 Bft)
13.02.2023 00:55 3,5 C 5,6 C 13,2 C 5,4 C 5,4 C 1,9 C 89 % 99 % 1037,9 hPa 0,0 l/m 0,0 km/h (0 Bft) SO 135 0 min 1,9 C 5,4 C 0,0 km/h (0 Bft)
13.02.2023 01:00 3,5 C 5,6 C 13,2 C 5,4 C 5,4 C 1,9 C 89 % 99 % 1037,9 hPa 0,0 l/m 0,0 km/h (0 Bft) SO 135 0 min 1,9 C 5,4 C 0,0 km/h (0 Bft)
13.02.2023 01:05 3,5 C 5,6 C 13,1 C 5,4 C 5,4 C 1,9 C 89 % 99 % 1037,4 hPa 0,0 l/m 0,0 km/h (0 Bft) SO 135 0 min 1,9 C 5,4 C 0,0 km/h (0 Bft)
13.02.2023 01:10 3,5 C 5,6 C 13,1 C 5,4 C 5,4 C 1,9 C 89 % 99 % 1037,4 hPa 0,0 l/m 0,0 km/h (0 Bft) SO 135 0 min 1,9 C 5,4 C 0,0 km/h (0 Bft)
13.02.2023 01:15 3,5 C 5,6 C 10,9 C 5,4 C 5,4 C 1,9 C 89 % 99 % 1037,4 hPa 0,0 l/m 0,0 km/h (0 Bft) SO 135 0 min 1,9 C 5,4 C 0,0 km/h (0 Bft)
13.02.2023 01:20 3,5 C 5,6 C 10,9 C 5,4 C 5,4 C 1,9 C 89 % 99 % 1037,4 hPa 0,0 l/m 0,0 km/h (0 Bft) SO 135 0 min 1,9 C 5,4 C 0,0 km/h (0 Bft)
13.02.2023 01:25 3,5 C 5,6 C 11,3 C 5,4 C 5,4 C 1,9 C 89 % 99 % 1037,4 hPa 0,0 l/m 0,0 km/h (0 Bft) SO 135 0 min 1,9 C 5,4 C 0,0 km/h (0 Bft)
13.02.2023 01:30 3,5 C 5,6 C 12,3 C 5,4 C 5,4 C 1,9 C 89 % 99 % 1037,4 hPa 0,0 l/m 0,0 km/h (0 Bft) SO 135 0 min 1,9 C 5,4 C 0,0 km/h (0 Bft)
13.02.2023 01:35 3,5 C 5,6 C 12,3 C 5,4 C 5,4 C 1,9 C 89 % 99 % 1037,4 hPa 0,0 l/m 0,0 km/h (0 Bft) SO 135 0 min 1,9 C 5,4 C 0,0 km/h (0 Bft)
13.02.2023 01:40 3,4 C 5,6 C 12,4 C 5,4 C 5,4 C 2,0 C 89 % 99 % 1037,4 hPa 0,0 l/m 0,0 km/h (0 Bft) SO 135 0 min 1,8 C 5,4 C 0,0 km/h (0 Bft)
13.02.2023 01:45 3,4 C 5,6 C 12,4 C 5,4 C 5,4 C 2,0 C 89 % 99 % 1037,7 hPa 0,0 l/m 0,0 km/h (0 Bft) SO 135 0 min 1,8 C 5,4 C 0,0 km/h (0 Bft)
13.02.2023 01:50 3,5 C 5,6 C 12,4 C 5,4 C 5,4 C 1,9 C 89 % 99 % 1037,7 hPa 0,0 l/m 0,0 km/h (0 Bft) SO 135 0 min 1,9 C 5,4 C 0,0 km/h (0 Bft)
13.02.2023 01:55 3,5 C 5,6 C 11,2 C 5,4 C 5,4 C 1,9 C 89 % 99 % 1037,7 hPa 0,0 l/m 0,0 km/h (0 Bft) SO 135 0 min 1,9 C 5,4 C 0,0 km/h (0 Bft)
13.02.2023 02:00 3,5 C 5,6 C 11,2 C 5,4 C 5,4 C 1,9 C 89 % 99 % 1037,7 hPa 0,0 l/m 0,0 km/h (0 Bft) SO 135 0 min 1,9 C 5,4 C 0,0 km/h (0 Bft)
13.02.2023 02:05 3,5 C 5,8 C 11,6 C 5,4 C 5,4 C 1,9 C 89 % 99 % 1037,7 hPa 0,0 l/m 0,0 km/h (0 Bft) SO 135 0 min 1,9 C 5,4 C 0,0 km/h (0 Bft)
13.02.2023 02:10 3,5 C 5,8 C 11,6 C 5,4 C 5,4 C 1,9 C 89 % 99 % 1037,7 hPa 0,0 l/m 0,0 km/h (0 Bft) SO 135 0 min 1,9 C 5,4 C 0,0 km/h (0 Bft)
13.02.2023 02:15 3,5 C 5,8 C 13,1 C 5,4 C 5,4 C 1,9 C 89 % 99 % 1037,7 hPa 0,0 l/m 0,0 km/h (0 Bft) O-NO 67 0 min 1,9 C 5,4 C 0,0 km/h (0 Bft)
13.02.2023 02:20 3,5 C 5,8 C 12,0 C 5,3 C 5,3 C 1,8 C 89 % 99 % 1037,7 hPa 0,0 l/m 0,0 km/h (0 Bft) O-NO 67 0 min 1,9 C 5,3 C 0,0 km/h (0 Bft)
13.02.2023 02:25 3,5 C 5,8 C 12,0 C 5,3 C 5,3 C 1,8 C 89 % 99 % 1037,4 hPa 0,0 l/m 0,0 km/h (0 Bft) O-NO 67 0 min 1,9 C 5,3 C 0,0 km/h (0 Bft)
13.02.2023 02:30 3,5 C 5,8 C 10,6 C 5,3 C 5,3 C 1,8 C 89 % 99 % 1037,4 hPa 0,0 l/m 0,0 km/h (0 Bft) SO 135 0 min 1,9 C 5,3 C 0,0 km/h (0 Bft)
13.02.2023 02:35 3,5 C 5,8 C 11,3 C 5,3 C 5,3 C 1,8 C 89 % 99 % 1037,4 hPa 0,0 l/m 0,0 km/h (0 Bft) SO 135 0 min 1,9 C 5,3 C 0,0 km/h (0 Bft)
13.02.2023 02:40 3,5 C 5,8 C 11,6 C 5,4 C 5,4 C 1,9 C 89 % 99 % 1037,4 hPa 0,0 l/m 0,0 km/h (0 Bft) SO 135 0 min 1,9 C 5,4 C 0,0 km/h (0 Bft)
13.02.2023 02:45 3,5 C 5,8 C 10,5 C 5,3 C 5,3 C 1,8 C 89 % 99 % 1037,4 hPa 0,0 l/m 0,0 km/h (0 Bft) SO 135 0 min 1,9 C 5,3 C 0,0 km/h (0 Bft)
13.02.2023 02:50 3,5 C 5,8 C 10,5 C 5,3 C 5,3 C 1,8 C 89 % 99 % 1037,4 hPa 0,0 l/m 0,0 km/h (0 Bft) SO 135 0 min 1,9 C 5,3 C 0,0 km/h (0 Bft)
13.02.2023 02:55 3,5 C 5,8 C 9,9 C 5,2 C 5,2 C 1,7 C 89 % 99 % 1037,4 hPa 0,0 l/m 0,0 km/h (0 Bft) SO 135 0 min 1,9 C 5,2 C 0,0 km/h (0 Bft)
13.02.2023 03:00 3,4 C 5,8 C 9,9 C 5,2 C 5,2 C 1,8 C 89 % 99 % 1037,4 hPa 0,0 l/m 0,0 km/h (0 Bft) SO 135 0 min 1,8 C 5,2 C 0,0 km/h (0 Bft)
13.02.2023 03:05 3,3 C 5,8 C 9,9 C 5,2 C 5,2 C 1,9 C 89 % 99 % 1037,4 hPa 0,0 l/m 0,0 km/h (0 Bft) S 180 0 min 1,7 C 5,2 C 0,0 km/h (0 Bft)
13.02.2023 03:10 3,3 C 5,8 C 9,9 C 5,2 C 5,2 C 1,9 C 89 % 99 % 1037,4 hPa 0,0 l/m 0,0 km/h (0 Bft) SO 135 0 min 1,7 C 5,2 C 0,0 km/h (0 Bft)
13.02.2023 03:15 3,3 C 5,8 C 7,5 C 5,2 C 5,2 C 1,9 C 89 % 99 % 1037,4 hPa 0,0 l/m 0,0 km/h (0 Bft) SO 135 0 min 1,7 C 5,2 C 0,0 km/h (0 Bft)
13.02.2023 03:20 3,3 C 5,8 C 7,5 C 5,2 C 5,2 C 1,9 C 89 % 99 % 1037,4 hPa 0,0 l/m 0,0 km/h (0 Bft) SO 135 0 min 1,7 C 5,2 C 0,0 km/h (0 Bft)
13.02.2023 03:25 3,2 C 5,8 C 5,6 C 5,2 C 5,2 C 2,0 C 89 % 99 % 1037,1 hPa 0,0 l/m 0,0 km/h (0 Bft) SO 135 0 min 1,6 C 5,2 C 0,0 km/h (0 Bft)
13.02.2023 03:30 3,2 C 5,8 C 5,6 C 5,1 C 5,1 C 1,9 C 89 % 99 % 1037,1 hPa 0,0 l/m 0,0 km/h (0 Bft) SO 135 0 min 1,6 C 5,1 C 0,0 km/h (0 Bft)
13.02.2023 03:35 3,2 C 5,8 C 8,0 C 5,1 C 5,1 C 1,9 C 89 % 99 % 1037,1 hPa 0,0 l/m 0,0 km/h (0 Bft) SO 135 0 min 1,6 C 5,1 C 0,0 km/h (0 Bft)
13.02.2023 03:40 3,3 C 5,8 C 8,0 C 5,2 C 5,2 C 1,9 C 89 % 99 % 1037,1 hPa 0,0 l/m 0,0 km/h (0 Bft) SO 135 0 min 1,7 C 5,2 C 0,0 km/h (0 Bft)
13.02.2023 03:45 3,2 C 5,8 C 8,0 C 5,1 C 5,1 C 1,9 C 89 % 99 % 1037,1 hPa 0,0 l/m 0,0 km/h (0 Bft) SO 135 0 min 1,6 C 5,1 C 0,0 km/h (0 Bft)
13.02.2023 03:50 3,2 C 5,8 C 8,9 C 5,1 C 5,1 C 1,9 C 89 % 99 % 1037,1 hPa 0,0 l/m 0,0 km/h (0 Bft) SO 135 0 min 1,6 C 5,1 C 0,0 km/h (0 Bft)
13.02.2023 03:55 3,3 C 5,8 C 8,9 C 5,1 C 5,1 C 1,8 C 89 % 99 % 1037,1 hPa 0,0 l/m 0,0 km/h (0 Bft) SO 135 0 min 1,7 C 5,1 C 0,0 km/h (0 Bft)
13.02.2023 04:00 3,3 C 5,8 C 7,1 C 5,1 C 5,1 C 1,8 C 89 % 99 % 1037,1 hPa 0,0 l/m 0,0 km/h (0 Bft) SO 135 0 min 1,7 C 5,1 C 0,0 km/h (0 Bft)
13.02.2023 04:05 3,2 C 5,8 C 7,1 C 5,1 C 5,1 C 1,9 C 89 % 99 % 1036,9 hPa 0,0 l/m 0,0 km/h (0 Bft) SO 135 0 min 1,6 C 5,1 C 0,0 km/h (0 Bft)
13.02.2023 04:10 3,2 C 5,8 C 7,1 C 5,1 C 5,1 C 1,9 C 89 % 99 % 1036,9 hPa 0,0 l/m 0,0 km/h (0 Bft) SO 135 0 min 1,6 C 5,1 C 0,0 km/h (0 Bft)
13.02.2023 04:15 3,2 C 5,8 C 6,1 C 5,1 C 5,1 C 1,9 C 89 % 99 % 1036,9 hPa 0,0 l/m 0,0 km/h (0 Bft) SO 135 0 min 1,6 C 5,1 C 0,0 km/h (0 Bft)
13.02.2023 04:20 3,3 C 5,8 C 6,1 C 5,1 C 5,1 C 1,8 C 89 % 99 % 1036,9 hPa 0,0 l/m 0,0 km/h (0 Bft) SO 135 0 min 1,7 C 5,1 C 0,0 km/h (0 Bft)
13.02.2023 04:25 3,2 C 5,8 C 6,4 C 5,1 C 5,1 C 1,9 C 89 % 99 % 1036,6 hPa 0,0 l/m 0,0 km/h (0 Bft) SO 135 0 min 1,6 C 5,1 C 0,0 km/h (0 Bft)
13.02.2023 04:30 3,2 C 5,8 C 6,4 C 5,1 C 5,1 C 1,9 C 89 % 99 % 1036,6 hPa 0,0 l/m 0,0 km/h (0 Bft) SO 135 0 min 1,6 C 5,1 C 0,0 km/h (0 Bft)
13.02.2023 04:35 3,2 C 5,8 C 6,4 C 5,1 C 5,1 C 1,9 C 89 % 99 % 1036,6 hPa 0,0 l/m 0,0 km/h (0 Bft) SO 135 0 min 1,6 C 5,1 C 0,0 km/h (0 Bft)
13.02.2023 04:40 3,2 C 5,8 C 4,1 C 5,1 C 5,1 C 1,9 C 89 % 99 % 1036,6 hPa 0,0 l/m 0,0 km/h (0 Bft) SO 135 0 min 1,6 C 5,1 C 0,0 km/h (0 Bft)
13.02.2023 04:45 3,1 C 5,8 C 4,1 C 5,1 C 5,1 C 2,0 C 89 % 99 % 1036,6 hPa 0,0 l/m 0,0 km/h (0 Bft) SO 135 0 min 1,5 C 5,1 C 0,0 km/h (0 Bft)
13.02.2023 04:50 3,1 C 5,8 C 4,1 C 5,1 C 5,1 C 2,0 C 89 % 99 % 1036,6 hPa 0,0 l/m 0,0 km/h (0 Bft) SO 135 0 min 1,5 C 5,1 C 0,0 km/h (0 Bft)
13.02.2023 04:55 3,1 C 5,8 C 5,3 C 5,1 C 5,1 C 2,0 C 89 % 99 % 1036,6 hPa 0,0 l/m 0,0 km/h (0 Bft) SO 135 0 min 1,5 C 5,1 C 0,0 km/h (0 Bft)
13.02.2023 05:00 3,1 C 5,8 C 5,3 C 5,0 C 5,0 C 1,9 C 89 % 99 % 1036,6 hPa 0,0 l/m 0,0 km/h (0 Bft) S 180 0 min 1,5 C 5,0 C 0,0 km/h (0 Bft)
13.02.2023 05:05 3,0 C 5,8 C 6,1 C 5,0 C 5,0 C 2,0 C 89 % 99 % 1036,6 hPa 0,0 l/m 0,0 km/h (0 Bft) S 180 0 min 1,4 C 5,0 C 0,0 km/h (0 Bft)
13.02.2023 05:10 3,1 C 5,8 C 6,1 C 4,9 C 4,9 C 1,8 C 89 % 99 % 1036,6 hPa 0,0 l/m 0,0 km/h (0 Bft) S 180 0 min 1,5 C 4,9 C 0,0 km/h (0 Bft)
13.02.2023 05:15 2,9 C 5,8 C 6,4 C 4,7 C 4,7 C 1,8 C 89 % 99 % 1036,6 hPa 0,0 l/m 0,0 km/h (0 Bft) S 180 0 min 1,3 C 4,7 C 0,0 km/h (0 Bft)
13.02.2023 05:20 2,9 C 5,8 C 6,4 C 4,6 C 4,6 C 1,7 C 89 % 99 % 1036,6 hPa 0,0 l/m 0,0 km/h (0 Bft) S 180 0 min 1,3 C 4,6 C 0,0 km/h (0 Bft)
13.02.2023 05:25 2,8 C 5,8 C 6,4 C 4,6 C 4,6 C 1,8 C 89 % 99 % 1036,6 hPa 0,0 l/m 0,0 km/h (0 Bft) S 180 0 min 1,2 C 4,6 C 0,0 km/h (0 Bft)
13.02.2023 05:30 2,9 C 5,8 C 7,3 C 4,6 C 4,6 C 1,7 C 89 % 99 % 1036,6 hPa 0,0 l/m 0,0 km/h (0 Bft) S 180 0 min 1,3 C 4,6 C 0,0 km/h (0 Bft)
13.02.2023 05:35 2,8 C 5,8 C 7,3 C 4,6 C 4,6 C 1,8 C 89 % 99 % 1036,6 hPa 0,0 l/m 0,0 km/h (0 Bft) SO 135 0 min 1,2 C 4,6 C 0,0 km/h (0 Bft)
13.02.2023 05:40 2,9 C 5,8 C 8,3 C 4,6 C 4,6 C 1,7 C 89 % 99 % 1036,6 hPa 0,0 l/m 0,0 km/h (0 Bft) SO 135 0 min 1,3 C 4,6 C 0,0 km/h (0 Bft)
13.02.2023 05:45 2,9 C 5,8 C 6,1 C 4,6 C 4,6 C 1,7 C 89 % 99 % 1037,3 hPa 0,0 l/m 0,0 km/h (0 Bft) SO 135 0 min 1,3 C 4,6 C 0,0 km/h (0 Bft)
13.02.2023 05:50 2,8 C 5,8 C 6,1 C 4,6 C 4,6 C 1,8 C 89 % 99 % 1037,3 hPa 0,0 l/m 0,0 km/h (0 Bft) SO 135 0 min 1,2 C 4,6 C 0,0 km/h (0 Bft)
13.02.2023 05:55 2,8 C 5,8 C 5,2 C 4,6 C 4,6 C 1,8 C 89 % 99 % 1037,3 hPa 0,0 l/m 0,0 km/h (0 Bft) SO 135 0 min 1,2 C 4,6 C 0,0 km/h (0 Bft)
13.02.2023 06:00 2,8 C 5,8 C 5,2 C 4,6 C 4,6 C 1,8 C 89 % 99 % 1037,3 hPa 0,0 l/m 0,0 km/h (0 Bft) SO 135 0 min 1,2 C 4,6 C 0,0 km/h (0 Bft)
13.02.2023 06:05 2,8 C 5,8 C 6,5 C 4,6 C 4,6 C 1,8 C 89 % 99 % 1037,3 hPa 0,0 l/m 0,0 km/h (0 Bft) SO 135 0 min 1,2 C 4,6 C 0,0 km/h (0 Bft)
13.02.2023 06:10 2,8 C 5,8 C 6,5 C 4,6 C 4,6 C 1,8 C 89 % 99 % 1037,3 hPa 0,0 l/m 0,0 km/h (0 Bft) SO 135 0 min 1,2 C 4,6 C 0,0 km/h (0 Bft)
13.02.2023 06:15 2,8 C 5,8 C 8,8 C 4,6 C 4,6 C 1,8 C 89 % 99 % 1037,3 hPa 0,0 l/m 0,0 km/h (0 Bft) SO 135 0 min 1,2 C 4,6 C 0,0 km/h (0 Bft)
13.02.2023 06:20 2,8 C 5,8 C 8,3 C 4,6 C 4,6 C 1,8 C 89 % 99 % 1037,3 hPa 0,0 l/m 0,0 km/h (0 Bft) SO 135 0 min 1,2 C 4,6 C 0,0 km/h (0 Bft)
13.02.2023 06:25 2,7 C 5,8 C 8,3 C 4,6 C 4,6 C 1,9 C 89 % 99 % 1037,3 hPa 0,0 l/m 0,0 km/h (0 Bft) SO 135 0 min 1,1 C 4,6 C 0,0 km/h (0 Bft)
13.02.2023 06:30 2,7 C 5,8 C 8,3 C 4,5 C 4,5 C 1,8 C 89 % 99 % 1037,3 hPa 0,0 l/m 0,0 km/h (0 Bft) SO 135 0 min 1,1 C 4,5 C 0,0 km/h (0 Bft)
13.02.2023 06:35 2,6 C 5,8 C 7,4 C 4,5 C 4,5 C 1,9 C 89 % 99 % 1037,3 hPa 0,0 l/m 0,0 km/h (0 Bft) SO 135 0 min 1,0 C 4,5 C 0,0 km/h (0 Bft)
13.02.2023 06:40 2,6 C 5,8 C 7,4 C 4,5 C 4,5 C 1,9 C 89 % 99 % 1037,3 hPa 0,0 l/m 0,0 km/h (0 Bft) SO 135 0 min 1,0 C 4,5 C 0,0 km/h (0 Bft)
13.02.2023 06:45 2,6 C 5,8 C 6,5 C 4,5 C 4,5 C 1,9 C 89 % 99 % 1037,3 hPa 0,0 l/m 0,0 km/h (0 Bft) SO 135 0 min 1,0 C 4,5 C 0,0 km/h (0 Bft)
13.02.2023 06:50 2,7 C 5,8 C 6,5 C 4,4 C 4,4 C 1,7 C 89 % 99 % 1037,3 hPa 0,0 l/m 0,0 km/h (0 Bft) SO 135 0 min 1,1 C 4,4 C 0,0 km/h (0 Bft)
13.02.2023 06:55 2,7 C 5,8 C 7,5 C 4,4 C 4,4 C 1,7 C 89 % 99 % 1037,3 hPa 0,0 l/m 0,0 km/h (0 Bft) S 180 0 min 1,1 C 4,4 C 0,0 km/h (0 Bft)
13.02.2023 07:00 2,6 C 5,8 C 7,7 C 4,4 C 4,4 C 1,8 C 89 % 99 % 1037,3 hPa 0,0 l/m 0,0 km/h (0 Bft) S 180 0 min 1,0 C 4,4 C 0,0 km/h (0 Bft)
13.02.2023 07:05 2,7 C 5,8 C 7,7 C 4,4 C 4,4 C 1,7 C 89 % 99 % 1037,3 hPa 0,0 l/m 0,0 km/h (0 Bft) S-SO 157 0 min 1,1 C 4,4 C 0,0 km/h (0 Bft)
13.02.2023 07:10 2,7 C 5,8 C 7,7 C 4,4 C 4,4 C 1,7 C 89 % 99 % 1037,3 hPa 0,0 l/m 0,0 km/h (0 Bft) S 180 0 min 1,1 C 4,4 C 0,0 km/h (0 Bft)
13.02.2023 07:15 2,6 C 5,8 C 4,5 C 4,4 C 4,4 C 1,8 C 89 % 99 % 1037,3 hPa 0,0 l/m 0,0 km/h (0 Bft) S-SW 202 0 min 1,0 C 4,4 C 0,0 km/h (0 Bft)
13.02.2023 07:20 2,7 C 5,8 C 4,5 C 4,3 C 4,3 C 1,6 C 89 % 99 % 1037,3 hPa 0,0 l/m 0,0 km/h (0 Bft) S-SW 202 0 min 1,1 C 4,3 C 0,0 km/h (0 Bft)
13.02.2023 07:25 2,7 C 5,8 C 7,8 C 4,3 C 4,3 C 1,6 C 89 % 99 % 1037,3 hPa 0,0 l/m 0,0 km/h (0 Bft) S-SW 202 0 min 1,1 C 4,3 C 0,0 km/h (0 Bft)
13.02.2023 07:30 2,6 C 5,8 C 6,7 C 4,3 C 4,3 C 1,7 C 89 % 99 % 1037,3 hPa 0,0 l/m 0,0 km/h (0 Bft) S-SW 202 0 min 1,0 C 4,3 C 0,0 km/h (0 Bft)
13.02.2023 07:35 2,5 C 5,8 C 4,3 C 4,3 C 4,3 C 1,8 C 89 % 99 % 1037,3 hPa 0,0 l/m 0,0 km/h (0 Bft) S-SW 202 0 min 0,9 C 4,3 C 0,0 km/h (0 Bft)
13.02.2023 07:40 2,5 C 5,8 C 4,3 C 4,2 C 4,2 C 1,7 C 89 % 99 % 1037,3 hPa 0,0 l/m 0,0 km/h (0 Bft) S-SW 202 5 min 0,9 C 4,2 C 0,0 km/h (0 Bft)
13.02.2023 07:45 2,5 C 5,8 C 4,2 C 4,2 C 4,2 C 1,7 C 89 % 99 % 1037,3 hPa 0,0 l/m 0,0 km/h (0 Bft) S-SO 157 5 min 0,9 C 4,2 C 0,0 km/h (0 Bft)
13.02.2023 07:50 2,5 C 5,8 C 3,7 C 4,3 C 4,3 C 1,8 C 89 % 99 % 1037,3 hPa 0,0 l/m 0,0 km/h (0 Bft) S-SW 202 5 min 0,9 C 4,3 C 0,0 km/h (0 Bft)
13.02.2023 07:55 2,5 C 5,9 C 3,7 C 4,3 C 4,3 C 1,8 C 89 % 99 % 1037,3 hPa 0,0 l/m 0,0 km/h (0 Bft) S-SO 157 5 min 0,9 C 4,3 C 0,0 km/h (0 Bft)
13.02.2023 08:00 2,5 C 5,9 C 3,7 C 4,3 C 4,3 C 1,8 C 89 % 99 % 1037,3 hPa 0,0 l/m 0,0 km/h (0 Bft) S-SW 202 5 min 0,9 C 4,3 C 0,0 km/h (0 Bft)
13.02.2023 08:05 2,5 C 5,9 C 4,1 C 4,3 C 4,3 C 1,8 C 89 % 99 % 1037,3 hPa 0,0 l/m 0,0 km/h (0 Bft) S-SW 202 5 min 0,9 C 4,3 C 0,0 km/h (0 Bft)
13.02.2023 08:10 2,4 C 5,9 C 4,1 C 4,3 C 4,3 C 1,9 C 89 % 99 % 1037,3 hPa 0,0 l/m 0,0 km/h (0 Bft) SW 225 5 min 0,8 C 4,3 C 0,0 km/h (0 Bft)
13.02.2023 08:15 2,4 C 5,9 C 4,9 C 4,3 C 4,3 C 1,9 C 89 % 99 % 1037,3 hPa 0,0 l/m 0,2 km/h (0 Bft) W-SW 247 5 min 0,8 C 4,3 C 2,6 km/h (1 Bft)
13.02.2023 08:20 2,4 C 5,9 C 4,9 C 4,4 C 4,4 C 2,0 C 89 % 99 % 1037,3 hPa 0,0 l/m 0,2 km/h (0 Bft) W-SW 247 5 min 0,8 C 4,4 C 0,0 km/h (0 Bft)
13.02.2023 08:25 2,4 C 5,9 C 4,9 C 4,4 C 4,4 C 2,0 C 89 % 99 % 1037,3 hPa 0,0 l/m 0,0 km/h (0 Bft) SW 225 5 min 0,8 C 4,4 C 0,0 km/h (0 Bft)
13.02.2023 08:30 2,4 C 5,9 C 2,9 C 4,4 C 4,4 C 2,0 C 89 % 99 % 1037,3 hPa 0,0 l/m 0,0 km/h (0 Bft) SW 225 5 min 0,8 C 4,4 C 0,0 km/h (0 Bft)
13.02.2023 08:35 2,4 C 5,9 C 2,9 C 4,5 C 4,5 C 2,1 C 89 % 99 % 1037,3 hPa 0,0 l/m 0,0 km/h (0 Bft) SW 225 5 min 0,8 C 4,5 C 0,0 km/h (0 Bft)
13.02.2023 08:40 2,4 C 5,9 C 4,9 C 4,5 C 4,5 C 2,1 C 89 % 99 % 1037,3 hPa 0,0 l/m 0,0 km/h (0 Bft) SW 225 5 min 0,8 C 4,5 C 0,0 km/h (0 Bft)
13.02.2023 08:45 2,5 C 5,9 C 6,5 C 4,6 C 4,6 C 2,1 C 89 % 99 % 1037,3 hPa 0,0 l/m 0,2 km/h (0 Bft) SO 135 5 min 0,9 C 4,6 C 3,4 km/h (1 Bft)
13.02.2023 08:50 2,5 C 5,9 C 6,5 C 4,6 C 4,6 C 2,1 C 89 % 99 % 1037,3 hPa 0,0 l/m 0,2 km/h (0 Bft) O-SO 112 5 min 0,9 C 4,6 C 0,0 km/h (0 Bft)
13.02.2023 08:55 2,5 C 5,9 C 4,3 C 4,7 C 4,7 C 2,2 C 89 % 99 % 1037,3 hPa 0,0 l/m 0,0 km/h (0 Bft) S 180 5 min 0,9 C 4,7 C 0,0 km/h (0 Bft)
13.02.2023 09:00 2,7 C 5,9 C 4,3 C 4,8 C 4,8 C 2,1 C 89 % 99 % 1037,3 hPa 0,0 l/m 0,0 km/h (0 Bft) S 180 5 min 1,1 C 4,8 C 0,0 km/h (0 Bft)
13.02.2023 09:05 2,6 C 5,9 C 6,4 C 5,0 C 5,0 C 2,4 C 89 % 99 % 1037,3 hPa 0,0 l/m 0,0 km/h (0 Bft) S 180 5 min 1,0 C 5,0 C 0,0 km/h (0 Bft)
13.02.2023 09:10 2,7 C 5,9 C 6,4 C 5,0 C 5,0 C 2,3 C 89 % 99 % 1037,3 hPa 0,0 l/m 0,0 km/h (0 Bft) S 180 5 min 1,1 C 5,0 C 0,0 km/h (0 Bft)
13.02.2023 09:15 2,6 C 5,9 C 6,4 C 5,1 C 5,1 C 2,5 C 89 % 99 % 1037,3 hPa 0,0 l/m 0,0 km/h (0 Bft) S 180 0 min 1,0 C 5,1 C 0,0 km/h (0 Bft)
13.02.2023 09:20 2,7 C 5,9 C 9,1 C 5,1 C 5,1 C 2,4 C 89 % 99 % 1037,3 hPa 0,0 l/m 0,0 km/h (0 Bft) S 180 0 min 1,1 C 5,1 C 0,0 km/h (0 Bft)
13.02.2023 09:25 2,7 C 5,9 C 9,1 C 5,2 C 5,2 C 2,5 C 89 % 99 % 1037,3 hPa 0,0 l/m 0,2 km/h (0 Bft) S-SW 202 0 min 1,1 C 5,2 C 0,0 km/h (0 Bft)
13.02.2023 09:30 2,7 C 5,9 C 9,1 C 5,2 C 5,2 C 2,5 C 89 % 99 % 1037,3 hPa 0,0 l/m 0,2 km/h (0 Bft) SW 225 0 min 1,1 C 5,2 C 0,0 km/h (0 Bft)
13.02.2023 09:35 2,8 C 5,9 C 7,6 C 5,4 C 5,4 C 2,6 C 89 % 99 % 1037,3 hPa 0,0 l/m 0,0 km/h (0 Bft) SW 225 0 min 1,2 C 5,4 C 0,0 km/h (0 Bft)
13.02.2023 09:40 2,8 C 5,9 C 7,6 C 5,5 C 5,5 C 2,7 C 89 % 99 % 1037,3 hPa 0,0 l/m 0,0 km/h (0 Bft) SW 225 0 min 1,2 C 5,5 C 0,0 km/h (0 Bft)
13.02.2023 09:45 2,9 C 5,9 C 9,7 C 5,8 C 5,8 C 2,9 C 89 % 99 % 1037,3 hPa 0,0 l/m 0,3 km/h (0 Bft) SW 225 0 min 1,3 C 5,8 C 3,5 km/h (1 Bft)
13.02.2023 09:50 2,9 C 5,9 C 9,7 C 5,9 C 5,9 C 3,0 C 89 % 99 % 1037,3 hPa 0,0 l/m 0,6 km/h (0 Bft) SW 225 0 min 1,3 C 5,9 C 1,8 km/h (1 Bft)
13.02.2023 09:55 3,1 C 6,0 C 12,2 C 6,0 C 6,0 C 2,9 C 89 % 99 % 1037,3 hPa 0,0 l/m 1,3 km/h (1 Bft) SW 225 0 min 1,5 C 6,0 C 3,9 km/h (1 Bft)
13.02.2023 10:00 3,1 C 6,0 C 12,5 C 6,1 C 6,1 C 3,0 C 89 % 99 % 1037,3 hPa 0,0 l/m 1,6 km/h (1 Bft) S-SW 202 0 min 1,5 C 6,1 C 0,0 km/h (0 Bft)
13.02.2023 10:05 3,2 C 6,0 C 12,5 C 6,3 C 6,3 C 3,1 C 89 % 99 % 1037,3 hPa 0,0 l/m 1,4 km/h (1 Bft) S-SO 157 0 min 1,6 C 6,3 C 8,2 km/h (2 Bft)
13.02.2023 10:10 3,2 C 6,0 C 13,2 C 6,4 C 6,4 C 3,2 C 89 % 99 % 1037,3 hPa 0,0 l/m 1,4 km/h (1 Bft) O-SO 112 0 min 1,6 C 6,4 C 0,0 km/h (0 Bft)
13.02.2023 10:15 3,2 C 6,0 C 13,2 C 6,5 C 6,5 C 3,3 C 89 % 99 % 1037,3 hPa 0,0 l/m 1,4 km/h (1 Bft) W-SW 247 5 min 1,6 C 6,5 C 4,8 km/h (1 Bft)
13.02.2023 10:20 3,2 C 6,0 C 13,2 C 6,4 C 6,4 C 3,2 C 89 % 99 % 1037,3 hPa 0,0 l/m 1,6 km/h (1 Bft) S 180 0 min 1,6 C 6,4 C 3,5 km/h (1 Bft)
13.02.2023 10:25 3,2 C 6,0 C 13,6 C 6,2 C 6,2 C 3,0 C 89 % 99 % 1037,3 hPa 0,0 l/m 3,4 km/h (1 Bft) W-SW 247 0 min 1,6 C 6,2 C 5,0 km/h (1 Bft)
13.02.2023 10:30 3,2 C 6,0 C 13,6 C 5,8 C 5,8 C 2,6 C 89 % 99 % 1037,3 hPa 0,0 l/m 4,2 km/h (1 Bft) SW 225 0 min 1,6 C 5,8 C 6,0 km/h (2 Bft)
13.02.2023 10:35 3,2 C 6,0 C 12,9 C 5,6 C 5,6 C 2,4 C 89 % 99 % 1037,3 hPa 0,0 l/m 4,0 km/h (1 Bft) W-SW 247 0 min 1,6 C 5,6 C 4,2 km/h (1 Bft)
13.02.2023 10:40 3,2 C 6,0 C 12,9 C 5,8 C 5,8 C 2,6 C 89 % 99 % 1037,3 hPa 0,0 l/m 3,5 km/h (1 Bft) W 270 0 min 1,6 C 5,8 C 3,5 km/h (1 Bft)
13.02.2023 10:45 3,1 C 6,0 C 12,1 C 6,0 C 6,0 C 2,9 C 89 % 99 % 1037,3 hPa 0,0 l/m 1,9 km/h (1 Bft) O-NO 67 0 min 1,5 C 6,0 C 0,0 km/h (0 Bft)
13.02.2023 10:50 3,1 C 6,0 C 12,1 C 6,0 C 6,0 C 2,9 C 89 % 99 % 1037,3 hPa 0,0 l/m 1,6 km/h (1 Bft) S-SO 157 0 min 1,5 C 6,0 C 0,0 km/h (0 Bft)
13.02.2023 10:55 3,0 C 6,0 C 12,1 C 6,0 C 6,0 C 3,0 C 89 % 99 % 1037,3 hPa 0,0 l/m 1,9 km/h (1 Bft) SW 225 0 min 1,4 C 6,0 C 4,3 km/h (1 Bft)
13.02.2023 11:00 2,9 C 6,0 C 12,3 C 5,9 C 5,9 C 3,0 C 89 % 99 % 1037,3 hPa 0,0 l/m 1,8 km/h (1 Bft) N-NO 22 0 min 1,3 C 5,9 C 2,1 km/h (1 Bft)
13.02.2023 11:05 2,9 C 6,0 C 12,3 C 6,0 C 6,0 C 3,1 C 89 % 99 % 1037,3 hPa 0,0 l/m 1,3 km/h (1 Bft) S-SO 157 0 min 1,3 C 6,0 C 6,9 km/h (2 Bft)
13.02.2023 11:10 2,8 C 6,0 C 9,5 C 5,9 C 5,9 C 3,1 C 89 % 99 % 1037,3 hPa 0,0 l/m 1,8 km/h (1 Bft) SO 135 0 min 1,2 C 5,9 C 0,0 km/h (0 Bft)
13.02.2023 11:15 2,8 C 6,0 C 9,3 C 5,9 C 5,9 C 3,1 C 89 % 99 % 1037,3 hPa 0,0 l/m 2,4 km/h (1 Bft) SW 225 0 min 1,2 C 5,9 C 3,7 km/h (1 Bft)
13.02.2023 11:20 2,8 C 6,0 C 9,3 C 5,8 C 5,8 C 3,0 C 89 % 99 % 1037,3 hPa 0,0 l/m 1,3 km/h (1 Bft) W 270 0 min 1,2 C 5,8 C 0,0 km/h (0 Bft)
13.02.2023 11:25 2,9 C 6,0 C 7,1 C 5,8 C 5,8 C 2,9 C 89 % 99 % 1037,3 hPa 0,0 l/m 1,1 km/h (1 Bft) SO 135 0 min 1,3 C 5,8 C 0,0 km/h (0 Bft)
13.02.2023 11:30 2,9 C 6,0 C 7,1 C 5,8 C 5,8 C 2,9 C 89 % 99 % 1037,3 hPa 0,0 l/m 0,8 km/h (0 Bft) O-SO 112 0 min 1,3 C 5,8 C 0,0 km/h (0 Bft)
13.02.2023 11:35 2,8 C 6,0 C 7,1 C 5,8 C 5,8 C 3,0 C 89 % 99 % 1037,3 hPa 0,0 l/m 0,8 km/h (0 Bft) O-SO 112 0 min 1,2 C 5,8 C 0,0 km/h (0 Bft)
13.02.2023 11:40 2,8 C 6,0 C 7,3 C 5,9 C 5,9 C 3,1 C 89 % 99 % 1037,3 hPa 0,0 l/m 0,6 km/h (0 Bft) SO 135 0 min 1,2 C 5,9 C 2,4 km/h (1 Bft)
13.02.2023 11:45 2,9 C 6,0 C 6,3 C 6,0 C 6,0 C 3,1 C 89 % 99 % 1037,3 hPa 0,0 l/m 0,6 km/h (0 Bft) N-NO 22 0 min 1,3 C 6,0 C 0,0 km/h (0 Bft)
13.02.2023 11:50 2,9 C 6,0 C 6,3 C 6,2 C 6,2 C 3,3 C 89 % 99 % 1037,3 hPa 0,0 l/m 1,6 km/h (1 Bft) S 180 5 min 1,3 C 6,2 C 5,8 km/h (2 Bft)
13.02.2023 11:55 2,8 C 6,0 C 9,9 C 6,2 C 6,2 C 3,4 C 89 % 99 % 1037,3 hPa 0,0 l/m 2,9 km/h (1 Bft) S-SO 157 5 min 1,2 C 6,2 C 2,3 km/h (1 Bft)
13.02.2023 12:00 2,8 C 6,0 C 9,9 C 6,2 C 6,2 C 3,4 C 89 % 99 % 1037,3 hPa 0,0 l/m 3,4 km/h (1 Bft) S-SO 157 5 min 1,2 C 6,2 C 4,0 km/h (1 Bft)
13.02.2023 12:05 2,8 C 6,0 C 9,6 C 6,3 C 6,3 C 3,5 C 89 % 99 % 1037,3 hPa 0,0 l/m 2,9 km/h (1 Bft) SO 135 5 min 1,2 C 6,3 C 3,2 km/h (1 Bft)
13.02.2023 12:10 2,8 C 6,0 C 9,6 C 6,3 C 6,3 C 3,5 C 89 % 99 % 1037,3 hPa 0,0 l/m 2,9 km/h (1 Bft) SO 135 5 min 1,2 C 6,3 C 3,2 km/h (1 Bft)
13.02.2023 12:15 2,9 C 6,0 C 9,6 C 6,5 C 6,5 C 3,6 C 89 % 99 % 1037,3 hPa 0,0 l/m 3,1 km/h (1 Bft) S-SW 202 5 min 1,3 C 6,5 C 4,0 km/h (1 Bft)
13.02.2023 12:20 2,9 C 6,0 C 9,2 C 6,4 C 6,4 C 3,5 C 89 % 99 % 1037,3 hPa 0,0 l/m 3,4 km/h (1 Bft) S-SO 157 5 min 1,3 C 6,4 C 6,8 km/h (2 Bft)
13.02.2023 12:25 2,9 C 6,0 C 8,9 C 6,5 C 6,5 C 3,6 C 89 % 99 % 1037,3 hPa 0,0 l/m 3,1 km/h (1 Bft) O-SO 112 5 min 1,3 C 6,5 C 1,6 km/h (1 Bft)
13.02.2023 12:30 2,9 C 6,0 C 7,3 C 6,5 C 6,5 C 3,6 C 89 % 99 % 1037,3 hPa 0,0 l/m 2,7 km/h (1 Bft) SO 135 5 min 1,3 C 6,5 C 0,0 km/h (0 Bft)
13.02.2023 12:36 3,0 C 6,0 C 7,3 C 6,5 C 6,5 C 3,5 C 89 % 99 % 1037,3 hPa 0,0 l/m 2,1 km/h (1 Bft) S-SO 157 6 min 1,4 C 6,5 C 3,7 km/h (1 Bft)
13.02.2023 12:40 3,0 C 6,0 C 7,3 C 6,5 C 6,5 C 3,5 C 89 % 99 % 1037,3 hPa 0,0 l/m 2,1 km/h (1 Bft) S-SO 157 4 min 1,4 C 6,5 C 3,7 km/h (1 Bft)
13.02.2023 12:47 2,8 C 6,0 C 7,3 C 6,2 C 6,2 C 3,4 C 89 % 99 % 1037,3 hPa 0,0 l/m 3,4 km/h (1 Bft) W-NW 292 7 min 1,2 C 6,2 C 9,0 km/h (2 Bft)
13.02.2023 12:48 2,8 C 6,0 C 7,3 C 6,2 C 6,2 C 3,4 C 89 % 99 % 1037,3 hPa 0,0 l/m 3,4 km/h (1 Bft) W-NW 292 1 min 1,2 C 6,2 C 0,0 km/h (0 Bft)
13.02.2023 12:49 2,8 C 6,0 C 7,3 C 6,2 C 6,2 C 3,4 C 89 % 99 % 1037,3 hPa 0,0 l/m 3,4 km/h (1 Bft) W-NW 292 1 min 1,2 C 6,2 C 0,0 km/h (0 Bft)
13.02.2023 12:50 2,8 C 6,0 C 7,3 C 6,2 C 6,2 C 3,4 C 89 % 99 % 1037,3 hPa 0,0 l/m 3,4 km/h (1 Bft) W-NW 292 1 min 1,2 C 6,2 C 0,0 km/h (0 Bft)
13.02.2023 12:51 2,9 C 6,0 C 8,9 C 6,2 C 6,2 C 3,3 C 89 % 99 % 1037,3 hPa 0,0 l/m 2,4 km/h (1 Bft) SO 135 1 min 1,3 C 6,2 C 1,6 km/h (1 Bft)
13.02.2023 12:53 2,9 C 6,0 C 8,9 C 6,2 C 6,2 C 3,3 C 89 % 99 % 1037,3 hPa 0,0 l/m 2,4 km/h (1 Bft) SO 135 2 min 1,3 C 6,2 C 1,6 km/h (1 Bft)
13.02.2023 12:55 2,9 C 6,0 C 8,9 C 6,2 C 6,2 C 3,3 C 89 % 99 % 1037,3 hPa 0,0 l/m 2,4 km/h (1 Bft) SO 135 2 min 1,3 C 6,2 C 1,6 km/h (1 Bft)
13.02.2023 13:00 2,9 C 6,0 C 9,7 C 6,3 C 6,3 C 3,4 C 89 % 99 % 1037,3 hPa 0,0 l/m 1,8 km/h (1 Bft) S-SO 157 5 min 1,3 C 6,3 C 7,9 km/h (2 Bft)
13.02.2023 13:05 2,9 C 6,0 C 9,7 C 6,3 C 6,3 C 3,4 C 89 % 99 % 1037,3 hPa 0,0 l/m 1,9 km/h (1 Bft) SW 225 5 min 1,3 C 6,3 C 0,0 km/h (0 Bft)
13.02.2023 13:10 2,9 C 6,0 C 9,8 C 6,3 C 6,3 C 3,4 C 89 % 99 % 1037,3 hPa 0,0 l/m 2,4 km/h (1 Bft) S 180 5 min 1,3 C 6,3 C 4,3 km/h (1 Bft)
13.02.2023 13:15 3,0 C 6,0 C 9,8 C 6,2 C 6,2 C 3,2 C 89 % 99 % 1037,3 hPa 0,0 l/m 2,6 km/h (1 Bft) SO 135 0 min 1,4 C 6,2 C 5,6 km/h (1 Bft)
13.02.2023 13:20 2,9 C 6,0 C 9,8 C 6,1 C 6,1 C 3,2 C 89 % 99 % 1037,3 hPa 0,0 l/m 2,9 km/h (1 Bft) O-NO 67 0 min 1,3 C 6,1 C 0,0 km/h (0 Bft)
13.02.2023 13:25 3,1 C 6,0 C 6,9 C 6,2 C 6,2 C 3,1 C 89 % 99 % 1037,3 hPa 0,0 l/m 1,4 km/h (1 Bft) S-SO 157 0 min 1,5 C 6,2 C 0,0 km/h (0 Bft)
13.02.2023 13:30 3,1 C 6,0 C 6,9 C 6,3 C 6,3 C 3,2 C 89 % 99 % 1037,3 hPa 0,0 l/m 0,3 km/h (0 Bft) S-SW 202 0 min 1,5 C 6,3 C 1,6 km/h (1 Bft)
13.02.2023 13:35 3,1 C 6,0 C 8,2 C 6,4 C 6,4 C 3,3 C 89 % 99 % 1037,3 hPa 0,0 l/m 0,6 km/h (0 Bft) S-SO 157 5 min 1,5 C 6,4 C 0,0 km/h (0 Bft)
13.02.2023 13:40 3,2 C 6,0 C 8,2 C 6,4 C 6,4 C 3,2 C 89 % 99 % 1037,3 hPa 0,0 l/m 0,6 km/h (0 Bft) O-NO 67 0 min 1,6 C 6,4 C 0,0 km/h (0 Bft)
13.02.2023 13:45 3,2 C 6,0 C 7,4 C 6,3 C 6,3 C 3,1 C 89 % 99 % 1037,3 hPa 0,0 l/m 0,5 km/h (0 Bft) S 180 0 min 1,6 C 6,3 C 0,0 km/h (0 Bft)
13.02.2023 13:50 3,2 C 6,0 C 7,4 C 6,5 C 6,5 C 3,3 C 89 % 99 % 1037,3 hPa 0,0 l/m 0,6 km/h (0 Bft) W-SW 247 5 min 1,6 C 6,5 C 0,0 km/h (0 Bft)
13.02.2023 13:55 3,3 C 6,0 C 7,4 C 6,5 C 6,5 C 3,2 C 89 % 99 % 1037,3 hPa 0,0 l/m 0,6 km/h (0 Bft) SO 135 0 min 1,7 C 6,5 C 2,6 km/h (1 Bft)
13.02.2023 14:00 3,3 C 6,0 C 6,8 C 6,5 C 6,5 C 3,2 C 89 % 99 % 1037,3 hPa 0,0 l/m 1,1 km/h (1 Bft) SW 225 0 min 1,7 C 6,5 C 3,2 km/h (1 Bft)
13.02.2023 14:05 3,4 C 6,0 C 6,8 C 6,6 C 6,6 C 3,2 C 89 % 99 % 1037,3 hPa 0,0 l/m 1,3 km/h (1 Bft) S 180 0 min 1,8 C 6,6 C 2,1 km/h (1 Bft)
13.02.2023 14:11 3,5 C 6,0 C 7,3 C 6,7 C 6,7 C 3,2 C 89 % 99 % 1037,3 hPa 0,0 l/m 1,3 km/h (1 Bft) N 0 0 min 1,9 C 6,7 C 2,7 km/h (1 Bft)
13.02.2023 14:19 3,5 C 6,0 C 7,3 C 6,7 C 6,7 C 3,2 C 89 % 99 % 1037,3 hPa 0,0 l/m 0,8 km/h (0 Bft) W-SW 247 0 min 1,9 C 6,7 C 2,4 km/h (1 Bft)
13.02.2023 14:25 3,6 C 6,0 C 8,6 C 6,9 C 6,9 C 3,3 C 89 % 99 % 1037,3 hPa 0,0 l/m 1,3 km/h (1 Bft) SW 225 6 min 2,0 C 6,9 C 2,4 km/h (1 Bft)
13.02.2023 14:30 3,6 C 6,0 C 8,6 C 6,9 C 6,9 C 3,3 C 89 % 99 % 1037,3 hPa 0,0 l/m 1,8 km/h (1 Bft) S 180 5 min 2,0 C 6,9 C 2,4 km/h (1 Bft)
13.02.2023 14:35 3,7 C 6,0 C 8,6 C 6,9 C 6,9 C 3,2 C 89 % 99 % 1037,3 hPa 0,0 l/m 1,0 km/h (0 Bft) S 180 0 min 2,1 C 6,9 C 0,0 km/h (0 Bft)
13.02.2023 14:40 3,9 C 6,0 C 10,2 C 7,0 C 7,0 C 3,1 C 89 % 99 % 1037,3 hPa 0,0 l/m 0,5 km/h (0 Bft) S-SO 157 0 min 2,3 C 7,0 C 1,6 km/h (1 Bft)
13.02.2023 14:45 3,9 C 5,9 C 10,2 C 7,2 C 7,2 C 3,3 C 89 % 99 % 1037,3 hPa 0,0 l/m 0,5 km/h (0 Bft) SW 225 5 min 2,3 C 7,2 C 0,0 km/h (0 Bft)
13.02.2023 14:50 4,0 C 5,9 C 10,9 C 7,2 C 7,2 C 3,2 C 89 % 99 % 1037,3 hPa 0,0 l/m 0,8 km/h (0 Bft) W-NW 292 0 min 2,4 C 7,2 C 0,0 km/h (0 Bft)
13.02.2023 14:55 4,0 C 5,9 C 10,9 C 7,2 C 7,2 C 3,2 C 89 % 99 % 1037,3 hPa 0,0 l/m 0,5 km/h (0 Bft) N-NW 337 0 min 2,4 C 7,2 C 0,0 km/h (0 Bft)
13.02.2023 15:00 4,1 C 5,9 C 11,3 C 7,2 C 7,2 C 3,1 C 89 % 99 % 1037,3 hPa 0,0 l/m 0,2 km/h (0 Bft) SW 225 0 min 2,5 C 7,2 C 0,0 km/h (0 Bft)
13.02.2023 15:05 4,3 C 5,9 C 8,9 C 7,3 C 7,3 C 3,0 C 89 % 99 % 1037,3 hPa 0,0 l/m 0,0 km/h (0 Bft) SW 225 0 min 2,7 C 7,3 C 0,0 km/h (0 Bft)
13.02.2023 15:10 4,3 C 5,9 C 8,9 C 7,3 C 7,3 C 3,0 C 89 % 99 % 1037,3 hPa 0,0 l/m 0,0 km/h (0 Bft) S 180 0 min 2,7 C 7,3 C 0,0 km/h (0 Bft)
13.02.2023 15:15 4,4 C 5,9 C 9,7 C 7,3 C 7,3 C 2,9 C 89 % 99 % 1037,3 hPa 0,0 l/m 0,0 km/h (0 Bft) S-SW 202 0 min 2,7 C 7,3 C 0,0 km/h (0 Bft)
13.02.2023 15:20 4,4 C 5,9 C 9,7 C 7,2 C 7,2 C 2,8 C 89 % 99 % 1037,3 hPa 0,0 l/m 0,0 km/h (0 Bft) S 180 0 min 2,7 C 7,2 C 0,0 km/h (0 Bft)
13.02.2023 15:25 4,5 C 5,8 C 9,7 C 7,1 C 7,1 C 2,6 C 88 % 99 % 1037,3 hPa 0,0 l/m 0,3 km/h (0 Bft) W-SW 247 0 min 2,7 C 7,1 C 0,0 km/h (0 Bft)
13.02.2023 15:30 4,7 C 5,9 C 9,4 C 7,0 C 7,0 C 2,3 C 88 % 99 % 1037,3 hPa 0,0 l/m 0,6 km/h (0 Bft) W 270 0 min 2,9 C 7,0 C 0,0 km/h (0 Bft)
13.02.2023 15:35 4,7 C 5,9 C 9,4 C 7,0 C 7,0 C 2,3 C 88 % 99 % 1037,3 hPa 0,0 l/m 0,3 km/h (0 Bft) W-SW 247 5 min 2,9 C 7,0 C 0,0 km/h (0 Bft)
13.02.2023 15:40 4,8 C 5,9 C 9,4 C 7,0 C 7,0 C 2,2 C 88 % 99 % 1037,3 hPa 0,0 l/m 0,0 km/h (0 Bft) W 270 5 min 3,0 C 7,0 C 0,0 km/h (0 Bft)
13.02.2023 15:45 4,9 C 5,9 C 9,2 C 7,0 C 7,0 C 2,1 C 89 % 99 % 1037,3 hPa 0,0 l/m 0,2 km/h (0 Bft) W-SW 247 5 min 3,2 C 7,0 C 0,0 km/h (0 Bft)
13.02.2023 15:50 4,9 C 5,9 C 9,2 C 6,9 C 6,9 C 2,0 C 89 % 99 % 1037,3 hPa 0,0 l/m 0,2 km/h (0 Bft) NW 315 5 min 3,2 C 6,9 C 0,0 km/h (0 Bft)
13.02.2023 15:55 5,1 C 5,9 C 11,3 C 6,8 C 6,8 C 1,7 C 89 % 99 % 1037,3 hPa 0,0 l/m 0,0 km/h (0 Bft) W 270 0 min 3,4 C 6,8 C 0,0 km/h (0 Bft)
13.02.2023 16:00 5,1 C 5,9 C 10,5 C 6,7 C 6,7 C 1,6 C 89 % 99 % 1037,3 hPa 0,0 l/m 0,0 km/h (0 Bft) W-SW 247 0 min 3,4 C 6,7 C 0,0 km/h (0 Bft)
13.02.2023 16:05 5,2 C 5,9 C 11,3 C 6,7 C 6,7 C 1,5 C 89 % 99 % 1037,2 hPa 0,0 l/m 0,0 km/h (0 Bft) W-SW 247 0 min 3,5 C 6,7 C 0,0 km/h (0 Bft)
13.02.2023 16:10 5,2 C 5,9 C 11,3 C 6,6 C 6,6 C 1,4 C 89 % 99 % 1037,2 hPa 0,0 l/m 0,0 km/h (0 Bft) S 180 0 min 3,5 C 6,6 C 0,0 km/h (0 Bft)
13.02.2023 16:15 5,2 C 5,9 C 11,3 C 6,5 C 6,5 C 1,3 C 89 % 99 % 1037,2 hPa 0,0 l/m 0,0 km/h (0 Bft) SW 225 0 min 3,5 C 6,5 C 0,0 km/h (0 Bft)
13.02.2023 16:20 5,3 C 5,9 C 8,0 C 6,5 C 6,5 C 1,2 C 89 % 99 % 1037,2 hPa 0,0 l/m 0,0 km/h (0 Bft) SW 225 0 min 3,6 C 6,5 C 0,0 km/h (0 Bft)
13.02.2023 16:25 5,5 C 5,9 C 8,0 C 6,5 C 6,5 C 1,0 C 89 % 99 % 1037,2 hPa 0,0 l/m 0,0 km/h (0 Bft) SW 225 0 min 3,8 C 6,5 C 0,0 km/h (0 Bft)
13.02.2023 16:30 5,5 C 5,9 C 8,0 C 6,4 C 6,4 C 0,9 C 89 % 99 % 1037,2 hPa 0,0 l/m 0,0 km/h (0 Bft) S-SW 202 0 min 3,8 C 6,4 C 0,0 km/h (0 Bft)
13.02.2023 16:35 5,4 C 5,9 C 7,9 C 6,4 C 6,4 C 1,0 C 89 % 99 % 1037,2 hPa 0,0 l/m 0,0 km/h (0 Bft) SW 225 5 min 3,7 C 6,4 C 0,0 km/h (0 Bft)
13.02.2023 16:40 5,5 C 5,9 C 8,5 C 6,3 C 6,3 C 0,8 C 89 % 99 % 1037,2 hPa 0,0 l/m 0,0 km/h (0 Bft) W-SW 247 0 min 3,8 C 6,3 C 0,0 km/h (0 Bft)
13.02.2023 16:45 5,5 C 5,9 C 10,3 C 6,2 C 6,2 C 0,7 C 89 % 99 % 1037,2 hPa 0,0 l/m 0,0 km/h (0 Bft) W-SW 247 0 min 3,8 C 6,2 C 0,0 km/h (0 Bft)
13.02.2023 16:50 5,5 C 5,9 C 10,3 C 6,2 C 6,2 C 0,7 C 89 % 99 % 1037,2 hPa 0,0 l/m 0,0 km/h (0 Bft) N-NW 337 5 min 3,8 C 6,2 C 0,0 km/h (0 Bft)
13.02.2023 16:55 5,6 C 5,9 C 10,3 C 6,1 C 6,1 C 0,5 C 89 % 99 % 1037,2 hPa 0,0 l/m 0,0 km/h (0 Bft) N-NW 337 5 min 3,9 C 6,1 C 0,0 km/h (0 Bft)
13.02.2023 17:00 5,5 C 5,9 C 5,3 C 6,1 C 6,1 C 0,6 C 89 % 99 % 1037,2 hPa 0,0 l/m 0,0 km/h (0 Bft) SW 225 5 min 3,8 C 6,1 C 0,0 km/h (0 Bft)
13.02.2023 17:05 5,5 C 5,9 C 5,3 C 5,9 C 5,9 C 0,4 C 88 % 99 % 1036,7 hPa 0,0 l/m 0,0 km/h (0 Bft) W-SW 247 5 min 3,7 C 5,9 C 0,0 km/h (0 Bft)
13.02.2023 17:10 5,5 C 5,9 C 4,8 C 5,9 C 5,9 C 0,4 C 88 % 99 % 1036,7 hPa 0,0 l/m 0,0 km/h (0 Bft) W-SW 247 0 min 3,7 C 5,9 C 0,0 km/h (0 Bft)
13.02.2023 17:16 5,5 C 5,9 C 4,7 C 5,8 C 5,8 C 0,3 C 88 % 99 % 1036,7 hPa 0,0 l/m 0,0 km/h (0 Bft) S-SO 157 0 min 3,7 C 5,8 C 0,0 km/h (0 Bft)
13.02.2023 17:20 5,5 C 5,9 C 4,7 C 5,8 C 5,8 C 0,3 C 88 % 99 % 1036,7 hPa 0,0 l/m 0,0 km/h (0 Bft) S-SO 157 0 min 3,7 C 5,8 C 0,0 km/h (0 Bft)
13.02.2023 17:27 5,5 C 6,1 C 3,7 C 5,7 C 5,7 C 0,2 C 88 % 99 % 1036,7 hPa 0,0 l/m 0,0 km/h (0 Bft) W-SW 247 0 min 3,7 C 5,7 C 0,0 km/h (0 Bft)
13.02.2023 17:28 5,5 C 6,1 C 3,7 C 5,7 C 5,7 C 0,2 C 88 % 99 % 1036,7 hPa 0,0 l/m 0,0 km/h (0 Bft) W-SW 247 0 min 3,7 C 5,7 C 0,0 km/h (0 Bft)
13.02.2023 17:29 5,5 C 6,1 C 3,7 C 5,7 C 5,7 C 0,2 C 88 % 99 % 1036,7 hPa 0,0 l/m 0,0 km/h (0 Bft) W-SW 247 0 min 3,7 C 5,7 C 0,0 km/h (0 Bft)
13.02.2023 17:30 5,5 C 6,1 C 3,7 C 5,7 C 5,7 C 0,2 C 88 % 99 % 1036,7 hPa 0,0 l/m 0,0 km/h (0 Bft) W-SW 247 0 min 3,7 C 5,7 C 0,0 km/h (0 Bft)
13.02.2023 17:31 5,5 C 6,1 C 4,3 C 5,6 C 5,6 C 0,1 C 88 % 99 % 1036,7 hPa 0,0 l/m 0,0 km/h (0 Bft) W-SW 247 0 min 3,7 C 5,6 C 0,0 km/h (0 Bft)
13.02.2023 17:33 5,5 C 6,1 C 4,3 C 5,6 C 5,6 C 0,1 C 88 % 99 % 1036,7 hPa 0,0 l/m 0,0 km/h (0 Bft) W-SW 247 0 min 3,7 C 5,6 C 0,0 km/h (0 Bft)
13.02.2023 17:35 5,5 C 6,1 C 4,3 C 5,6 C 5,6 C 0,1 C 88 % 99 % 1036,7 hPa 0,0 l/m 0,0 km/h (0 Bft) W-SW 247 0 min 3,7 C 5,6 C 0,0 km/h (0 Bft)
13.02.2023 17:40 5,5 C 6,1 C 4,3 C 5,5 C 5,5 C 0,0 C 88 % 99 % 1036,7 hPa 0,0 l/m 0,0 km/h (0 Bft) W-SW 247 0 min 3,7 C 5,5 C 0,0 km/h (0 Bft)
13.02.2023 17:45 5,3 C 6,1 C 4,3 C 5,4 C 5,4 C 0,1 C 88 % 99 % 1036,2 hPa 0,0 l/m 0,0 km/h (0 Bft) W-SW 247 0 min 3,5 C 5,4 C 0,0 km/h (0 Bft)
13.02.2023 17:50 5,3 C 6,1 C 5,7 C 5,4 C 5,4 C 0,1 C 88 % 99 % 1036,2 hPa 0,0 l/m 0,0 km/h (0 Bft) W-SW 247 0 min 3,5 C 5,4 C 0,0 km/h (0 Bft)
13.02.2023 17:55 5,3 C 6,1 C 5,7 C 5,4 C 5,4 C 0,1 C 88 % 99 % 1036,2 hPa 0,0 l/m 0,0 km/h (0 Bft) W-SW 247 0 min 3,5 C 5,4 C 0,0 km/h (0 Bft)
13.02.2023 18:00 5,2 C 6,1 C 5,7 C 5,4 C 5,4 C 0,2 C 88 % 99 % 1036,2 hPa 0,0 l/m 0,0 km/h (0 Bft) W-SW 247 0 min 3,4 C 5,4 C 0,0 km/h (0 Bft)
13.02.2023 18:05 5,2 C 6,1 C 7,1 C 5,4 C 5,4 C 0,2 C 88 % 99 % 1036,2 hPa 0,0 l/m 0,0 km/h (0 Bft) W-SW 247 0 min 3,4 C 5,4 C 0,0 km/h (0 Bft)
13.02.2023 18:11 5,2 C 6,2 C 4,0 C 5,3 C 5,3 C 0,1 C 88 % 99 % 1036,2 hPa 0,0 l/m 0,0 km/h (0 Bft) N 0 0 min 3,4 C 5,3 C 0,0 km/h (0 Bft)
13.02.2023 18:26 5,1 C 6,2 C 2,9 C 5,2 C 5,2 C 0,1 C 88 % 99 % 1036,2 hPa 0,0 l/m 0,0 km/h (0 Bft) W-SW 247 0 min 3,3 C 5,2 C 0,0 km/h (0 Bft)
13.02.2023 18:40 5,0 C 6,2 C 2,6 C 5,2 C 5,2 C 0,2 C 88 % 99 % 1036,2 hPa 0,0 l/m 0,0 km/h (0 Bft) W-SW 247 0 min 3,2 C 5,2 C 0,0 km/h (0 Bft)
13.02.2023 18:45 5,1 C 6,2 C 2,6 C 5,1 C 5,1 C 0,0 C 88 % 99 % 1036,2 hPa 0,0 l/m 0,0 km/h (0 Bft) W-SW 247 0 min 3,3 C 5,1 C 0,0 km/h (0 Bft)
13.02.2023 18:50 5,0 C 6,2 C 2,6 C 5,1 C 5,1 C 0,1 C 88 % 99 % 1036,2 hPa 0,0 l/m 0,0 km/h (0 Bft) W-SW 247 0 min 3,2 C 5,1 C 0,0 km/h (0 Bft)
13.02.2023 18:55 4,9 C 6,2 C 1,8 C 5,1 C 5,1 C 0,2 C 88 % 99 % 1036,2 hPa 0,0 l/m 0,0 km/h (0 Bft) W-SW 247 0 min 3,1 C 5,1 C 0,0 km/h (0 Bft)
13.02.2023 19:00 4,9 C 6,2 C 1,8 C 5,0 C 5,0 C 0,1 C 88 % 99 % 1036,2 hPa 0,0 l/m 0,0 km/h (0 Bft) W-SW 247 0 min 3,1 C 5,0 C 0,0 km/h (0 Bft)
13.02.2023 19:05 4,9 C 6,2 C 2,9 C 5,0 C 5,0 C 0,1 C 88 % 99 % 1036,2 hPa 0,0 l/m 0,0 km/h (0 Bft) W-SW 247 0 min 3,1 C 5,0 C 0,0 km/h (0 Bft)
13.02.2023 19:10 4,8 C 6,2 C 2,9 C 5,0 C 5,0 C 0,2 C 88 % 99 % 1036,2 hPa 0,0 l/m 0,0 km/h (0 Bft) W-SW 247 0 min 3,0 C 5,0 C 0,0 km/h (0 Bft)
13.02.2023 19:15 4,8 C 6,2 C 2,9 C 5,0 C 5,0 C 0,2 C 88 % 99 % 1036,2 hPa 0,0 l/m 0,0 km/h (0 Bft) W-SW 247 0 min 3,0 C 5,0 C 0,0 km/h (0 Bft)
13.02.2023 19:20 4,9 C 6,2 C 2,9 C 4,9 C 4,9 C 0,0 C 88 % 99 % 1036,2 hPa 0,0 l/m 0,0 km/h (0 Bft) W-SW 247 0 min 3,1 C 4,9 C 0,0 km/h (0 Bft)
13.02.2023 19:25 4,8 C 6,2 C 2,9 C 4,9 C 4,9 C 0,1 C 88 % 99 % 1036,2 hPa 0,0 l/m 0,0 km/h (0 Bft) W-SW 247 0 min 3,0 C 4,9 C 0,0 km/h (0 Bft)
13.02.2023 19:30 4,8 C 6,2 C 5,9 C 4,9 C 4,9 C 0,1 C 88 % 99 % 1036,2 hPa 0,0 l/m 0,0 km/h (0 Bft) W-SW 247 0 min 3,0 C 4,9 C 0,0 km/h (0 Bft)
13.02.2023 19:35 4,7 C 6,2 C 5,9 C 4,9 C 4,9 C 0,2 C 88 % 99 % 1036,2 hPa 0,0 l/m 0,0 km/h (0 Bft) W-SW 247 0 min 2,9 C 4,9 C 0,0 km/h (0 Bft)
13.02.2023 19:40 4,7 C 6,2 C 4,1 C 4,9 C 4,9 C 0,2 C 88 % 99 % 1036,2 hPa 0,0 l/m 0,0 km/h (0 Bft) S-SO 157 0 min 2,9 C 4,9 C 0,0 km/h (0 Bft)
13.02.2023 19:45 4,7 C 6,2 C 4,9 C 4,9 C 4,9 C 0,2 C 88 % 99 % 1036,2 hPa 0,0 l/m 0,0 km/h (0 Bft) SW 225 0 min 2,9 C 4,9 C 0,0 km/h (0 Bft)
13.02.2023 19:50 4,7 C 6,2 C 4,9 C 4,8 C 4,8 C 0,1 C 88 % 99 % 1036,2 hPa 0,0 l/m 0,0 km/h (0 Bft) S 180 0 min 2,9 C 4,8 C 0,0 km/h (0 Bft)
13.02.2023 19:55 4,7 C 6,2 C 6,4 C 4,8 C 4,8 C 0,1 C 88 % 99 % 1036,2 hPa 0,0 l/m 0,0 km/h (0 Bft) S 180 0 min 2,9 C 4,8 C 0,0 km/h (0 Bft)
13.02.2023 20:00 4,7 C 6,2 C 6,4 C 4,8 C 4,8 C 0,1 C 88 % 99 % 1036,2 hPa 0,0 l/m 0,0 km/h (0 Bft) S 180 0 min 2,9 C 4,8 C 0,0 km/h (0 Bft)
13.02.2023 20:05 4,7 C 6,2 C 6,4 C 4,8 C 4,8 C 0,1 C 88 % 99 % 1037,4 hPa 0,0 l/m 0,0 km/h (0 Bft) O-NO 67 0 min 2,9 C 4,8 C 0,0 km/h (0 Bft)
13.02.2023 20:11 4,6 C 6,2 C 5,3 C 4,7 C 4,7 C 0,1 C 88 % 99 % 1037,4 hPa 0,0 l/m 0,0 km/h (0 Bft) N 0 0 min 2,8 C 4,7 C 0,0 km/h (0 Bft)
13.02.2023 20:19 4,5 C 6,2 C 5,3 C 4,7 C 4,7 C 0,2 C 88 % 99 % 1037,4 hPa 0,0 l/m 0,0 km/h (0 Bft) N 360 0 min 2,7 C 4,7 C 0,0 km/h (0 Bft)
13.02.2023 20:20 4,5 C 6,2 C 5,3 C 4,7 C 4,7 C 0,2 C 88 % 99 % 1037,4 hPa 0,0 l/m 0,0 km/h (0 Bft) N 360 0 min 2,7 C 4,7 C 0,0 km/h (0 Bft)
13.02.2023 20:25 4,5 C 6,2 C 5,7 C 4,7 C 4,7 C 0,2 C 88 % 99 % 1036,8 hPa 0,0 l/m 0,0 km/h (0 Bft) O-NO 67 0 min 2,7 C 4,7 C 0,0 km/h (0 Bft)
13.02.2023 20:30 4,5 C 6,2 C 5,7 C 4,7 C 4,7 C 0,2 C 88 % 99 % 1036,8 hPa 0,0 l/m 0,0 km/h (0 Bft) W 270 0 min 2,7 C 4,7 C 0,0 km/h (0 Bft)
13.02.2023 20:35 4,5 C 6,2 C 6,2 C 4,8 C 4,8 C 0,3 C 88 % 99 % 1036,8 hPa 0,0 l/m 0,0 km/h (0 Bft) O-NO 67 0 min 2,7 C 4,8 C 0,0 km/h (0 Bft)
13.02.2023 20:40 4,5 C 6,2 C 6,2 C 4,8 C 4,8 C 0,3 C 88 % 99 % 1036,8 hPa 0,0 l/m 0,0 km/h (0 Bft) O-NO 67 0 min 2,7 C 4,8 C 0,0 km/h (0 Bft)
13.02.2023 20:45 4,5 C 6,2 C 6,2 C 4,7 C 4,7 C 0,2 C 88 % 99 % 1036,8 hPa 0,0 l/m 0,0 km/h (0 Bft) O-NO 67 0 min 2,7 C 4,7 C 0,0 km/h (0 Bft)
13.02.2023 20:50 4,5 C 6,2 C 5,9 C 4,7 C 4,7 C 0,2 C 88 % 99 % 1036,8 hPa 0,0 l/m 0,0 km/h (0 Bft) O-NO 67 0 min 2,7 C 4,7 C 0,0 km/h (0 Bft)
13.02.2023 20:55 4,4 C 6,2 C 7,2 C 4,7 C 4,7 C 0,3 C 88 % 99 % 1036,8 hPa 0,0 l/m 0,0 km/h (0 Bft) N-NO 22 0 min 2,6 C 4,7 C 0,0 km/h (0 Bft)
13.02.2023 21:00 4,4 C 6,2 C 5,7 C 4,7 C 4,7 C 0,3 C 88 % 99 % 1036,8 hPa 0,0 l/m 0,0 km/h (0 Bft) SW 225 0 min 2,6 C 4,7 C 0,0 km/h (0 Bft)
13.02.2023 21:05 4,5 C 6,2 C 5,7 C 4,6 C 4,6 C 0,1 C 88 % 99 % 1036,8 hPa 0,0 l/m 0,0 km/h (0 Bft) SW 225 0 min 2,7 C 4,6 C 0,0 km/h (0 Bft)
13.02.2023 21:10 4,5 C 6,2 C 5,7 C 4,6 C 4,6 C 0,1 C 88 % 99 % 1036,8 hPa 0,0 l/m 0,0 km/h (0 Bft) S 180 0 min 2,7 C 4,6 C 0,0 km/h (0 Bft)
13.02.2023 21:15 4,4 C 6,2 C 5,9 C 4,6 C 4,6 C 0,2 C 88 % 99 % 1036,8 hPa 0,0 l/m 0,0 km/h (0 Bft) SO 135 0 min 2,6 C 4,6 C 0,0 km/h (0 Bft)
13.02.2023 21:20 4,4 C 6,2 C 5,9 C 4,6 C 4,6 C 0,2 C 88 % 99 % 1036,8 hPa 0,0 l/m 0,0 km/h (0 Bft) SO 135 0 min 2,6 C 4,6 C 0,0 km/h (0 Bft)
13.02.2023 21:25 4,4 C 6,3 C 7,5 C 4,6 C 4,6 C 0,2 C 88 % 99 % 1036,6 hPa 0,0 l/m 0,0 km/h (0 Bft) SO 135 0 min 2,6 C 4,6 C 0,0 km/h (0 Bft)
13.02.2023 21:30 4,4 C 6,3 C 7,6 C 4,6 C 4,6 C 0,2 C 88 % 99 % 1036,6 hPa 0,0 l/m 0,0 km/h (0 Bft) W-SW 247 0 min 2,6 C 4,6 C 0,0 km/h (0 Bft)
13.02.2023 21:35 4,4 C 6,3 C 7,6 C 4,7 C 4,7 C 0,3 C 88 % 99 % 1036,6 hPa 0,0 l/m 0,0 km/h (0 Bft) S 180 0 min 2,6 C 4,7 C 0,0 km/h (0 Bft)
13.02.2023 21:40 4,4 C 6,3 C 7,6 C 4,7 C 4,7 C 0,3 C 89 % 99 % 1036,6 hPa 0,0 l/m 0,0 km/h (0 Bft) S 180 0 min 2,7 C 4,7 C 0,0 km/h (0 Bft)
13.02.2023 21:45 4,5 C 6,2 C 7,6 C 4,8 C 4,8 C 0,3 C 88 % 99 % 1036,6 hPa 0,0 l/m 0,0 km/h (0 Bft) S 180 0 min 2,7 C 4,8 C 0,0 km/h (0 Bft)
13.02.2023 21:50 4,5 C 6,2 C 7,6 C 4,8 C 4,8 C 0,3 C 88 % 99 % 1036,6 hPa 0,0 l/m 0,2 km/h (0 Bft) S-SW 202 0 min 2,7 C 4,8 C 2,1 km/h (1 Bft)
13.02.2023 21:55 4,4 C 6,2 C 7,3 C 4,9 C 4,9 C 0,5 C 88 % 99 % 1036,6 hPa 0,0 l/m 1,0 km/h (0 Bft) S-SW 202 0 min 2,6 C 4,9 C 0,0 km/h (0 Bft)
13.02.2023 22:00 4,4 C 6,2 C 7,3 C 4,9 C 4,9 C 0,5 C 89 % 99 % 1036,6 hPa 0,0 l/m 1,0 km/h (0 Bft) SO 135 0 min 2,7 C 4,9 C 0,0 km/h (0 Bft)
13.02.2023 22:05 4,4 C 6,3 C 6,4 C 4,8 C 4,8 C 0,4 C 89 % 99 % 1036,6 hPa 0,0 l/m 0,0 km/h (0 Bft) W-SW 247 0 min 2,7 C 4,8 C 0,0 km/h (0 Bft)
13.02.2023 22:10 4,4 C 6,3 C 6,4 C 4,8 C 4,8 C 0,4 C 89 % 99 % 1036,6 hPa 0,0 l/m 0,0 km/h (0 Bft) S-SO 157 0 min 2,7 C 4,8 C 0,0 km/h (0 Bft)
13.02.2023 22:15 4,4 C 6,3 C 4,9 C 4,8 C 4,8 C 0,4 C 88 % 99 % 1036,6 hPa 0,0 l/m 0,0 km/h (0 Bft) SO 135 0 min 2,6 C 4,8 C 0,0 km/h (0 Bft)
13.02.2023 22:20 4,4 C 6,3 C 4,9 C 4,7 C 4,7 C 0,3 C 88 % 99 % 1036,6 hPa 0,0 l/m 0,0 km/h (0 Bft) S 180 0 min 2,6 C 4,7 C 0,0 km/h (0 Bft)
13.02.2023 22:25 4,4 C 6,3 C 4,9 C 4,8 C 4,8 C 0,4 C 88 % 99 % 1036,6 hPa 0,0 l/m 0,0 km/h (0 Bft) S 180 0 min 2,6 C 4,8 C 0,0 km/h (0 Bft)
13.02.2023 22:30 4,4 C 6,3 C 7,7 C 4,8 C 4,8 C 0,4 C 89 % 99 % 1036,6 hPa 0,0 l/m 0,0 km/h (0 Bft) S-SO 157 0 min 2,7 C 4,8 C 0,0 km/h (0 Bft)
13.02.2023 22:35 4,4 C 6,3 C 7,7 C 4,8 C 4,8 C 0,4 C 88 % 99 % 1036,6 hPa 0,0 l/m 0,0 km/h (0 Bft) S-SO 157 0 min 2,6 C 4,8 C 0,0 km/h (0 Bft)
13.02.2023 22:40 4,4 C 6,3 C 7,7 C 4,8 C 4,8 C 0,4 C 88 % 99 % 1036,6 hPa 0,0 l/m 0,0 km/h (0 Bft) S-SO 157 0 min 2,6 C 4,8 C 0,0 km/h (0 Bft)
13.02.2023 22:45 4,5 C 6,3 C 6,6 C 4,8 C 4,8 C 0,3 C 88 % 99 % 1037,4 hPa 0,0 l/m 0,0 km/h (0 Bft) NO 45 0 min 2,7 C 4,8 C 0,0 km/h (0 Bft)
13.02.2023 22:50 4,5 C 6,3 C 6,6 C 4,8 C 4,8 C 0,3 C 89 % 99 % 1037,4 hPa 0,0 l/m 0,0 km/h (0 Bft) NO 45 0 min 2,8 C 4,8 C 0,0 km/h (0 Bft)
13.02.2023 22:55 4,4 C 6,3 C 2,9 C 4,7 C 4,7 C 0,3 C 89 % 99 % 1037,4 hPa 0,0 l/m 0,0 km/h (0 Bft) NO 45 0 min 2,7 C 4,7 C 0,0 km/h (0 Bft)
13.02.2023 23:00 4,4 C 6,3 C 2,9 C 4,7 C 4,7 C 0,3 C 88 % 99 % 1037,4 hPa 0,0 l/m 0,0 km/h (0 Bft) NO 45 0 min 2,6 C 4,7 C 0,0 km/h (0 Bft)
13.02.2023 23:05 4,4 C 6,3 C 2,9 C 4,7 C 4,7 C 0,3 C 89 % 99 % 1037,4 hPa 0,0 l/m 0,0 km/h (0 Bft) NO 45 0 min 2,7 C 4,7 C 0,0 km/h (0 Bft)
13.02.2023 23:10 4,4 C 6,3 C 5,0 C 4,7 C 4,7 C 0,3 C 89 % 99 % 1037,4 hPa 0,0 l/m 0,0 km/h (0 Bft) NO 45 0 min 2,7 C 4,7 C 0,0 km/h (0 Bft)
13.02.2023 23:15 4,3 C 6,3 C 5,0 C 4,6 C 4,6 C 0,3 C 89 % 99 % 1037,4 hPa 0,0 l/m 0,0 km/h (0 Bft) NO 45 0 min 2,7 C 4,6 C 0,0 km/h (0 Bft)
13.02.2023 23:20 4,3 C 6,3 C 4,5 C 4,6 C 4,6 C 0,3 C 89 % 99 % 1037,4 hPa 0,0 l/m 0,0 km/h (0 Bft) NO 45 0 min 2,7 C 4,6 C 0,0 km/h (0 Bft)
13.02.2023 23:25 4,3 C 6,3 C 4,5 C 4,6 C 4,6 C 0,3 C 89 % 99 % 1036,9 hPa 0,0 l/m 0,0 km/h (0 Bft) S-SO 157 0 min 2,7 C 4,6 C 0,0 km/h (0 Bft)
13.02.2023 23:30 4,3 C 6,3 C 4,5 C 4,6 C 4,6 C 0,3 C 89 % 99 % 1036,9 hPa 0,0 l/m 0,0 km/h (0 Bft) S-SO 157 0 min 2,7 C 4,6 C 0,0 km/h (0 Bft)
13.02.2023 23:35 4,3 C 6,3 C 2,1 C 4,6 C 4,6 C 0,3 C 89 % 99 % 1036,9 hPa 0,0 l/m 0,0 km/h (0 Bft) S-SO 157 0 min 2,7 C 4,6 C 0,0 km/h (0 Bft)
13.02.2023 23:40 4,3 C 6,3 C 2,1 C 4,6 C 4,6 C 0,3 C 89 % 99 % 1036,9 hPa 0,0 l/m 0,0 km/h (0 Bft) S-SO 157 0 min 2,7 C 4,6 C 0,0 km/h (0 Bft)
13.02.2023 23:45 4,3 C 6,3 C 5,7 C 4,6 C 4,6 C 0,3 C 89 % 99 % 1036,9 hPa 0,0 l/m 0,0 km/h (0 Bft) S-SO 157 0 min 2,7 C 4,6 C 0,0 km/h (0 Bft)
13.02.2023 23:50 4,2 C 6,3 C 5,7 C 4,6 C 4,6 C 0,4 C 89 % 99 % 1036,9 hPa 0,0 l/m 0,0 km/h (0 Bft) S-SO 157 0 min 2,6 C 4,6 C 0,0 km/h (0 Bft)
13.02.2023 23:55 4,1 C 6,3 C 4,6 C 4,6 C 4,6 C 0,5 C 89 % 99 % 1036,9 hPa 0,0 l/m 0,0 km/h (0 Bft) S-SO 157 0 min 2,5 C 4,6 C 0,0 km/h (0 Bft)
_ Min-Zeit 08:10 00:00 18:55 07:40 07:40 17:40 15:25 00:00 17:45 - 00:00 - - - 08:10 07:40 00:00
Minimum _ 2,4 C 5,6 C 1,8 C 4,2 C 4,2 C 0,0 C 88 % 99 % 1036,2 hPa - 0,0 km/h (0 Bft) - - - 0,8 C 4,2 C 0,0 km/h (0 Bft)
_ Max-Zeit 16:55 21:25 00:00 15:05 15:05 12:15 00:00 00:00 00:00 00:00 10:30 - - 12:47 16:55 15:05 12:47
Maximum _ 5,6 C 6,3 C 13,7 C 7,3 C 7,3 C 3,6 C 89 % 99 % 1038,5 hPa 0,0 l/m 4,2 km/h
SW (1 Bft)
- - 7 min 3,9 C 7,3 C 9,0 km/h
W-NW (2 Bft)
Durchschnitt _ 3,7 C 6,0 C 7,7 C 5,4 C 5,4 C 1,7 C 89 % 99 % 1037,1 hPa #0,0 l/m 0,4 km/h (0 Bft) S-SO - #4:16 h 2,0 C 5,4 C 0,6 km/h (0 Bft)
2023 www.wetterstation-wechselburg.de